Wind_Speed
14 16 17 18 20 21 22 21 22 21 17 14 6 5 7 9 7 6 6 7 8 9 8 5 6 8 2 3 3 3 4 1 3 6 3 1 2 2 0 6 3 5 3 10 25
13 15 16 17 18 19 21 21 22 23 17 14 5 6 4 3 4 9 5 7 8 10 6 9 6 7 3 2 3 4 3 4 1 4 4 4 4 7 4 4 4 4 7 21 19
12 14 15 17 18 19 20 21 21 22 19 13 7 5 6 2 2 2 4 7 9 9 6 3 2 2 3 2 3 1 2 3 2 2 3 2 2 5 7 5 9 13 13 12 15
14 15 16 17 18 19 20 21 21 21 20 13 6 1 6 1 3 5 1 5 7 7 7 5 6 4 3 3 4 2 2 2 4 2 3 3 4 4 8 5 6 14 17 11 10
15 17 18 19 19 20 20 21 21 22 17 11 5 4 3 2 5 4 0 2 4 3 9 4 5 2 2 3 5 1 2 2 4 5 4 2 6 6 8 3 10 16 12 10 10
15 17 18 20 21 21 21 21 22 23 16 8 4 6 1 3 2 2 1 1 5 6 6 6 2 1 3 0 1 3 3 5 5 4 3 5 2 2 3 5 9 13 9 9 12
16 18 19 20 22 22 23 22 23 26 14 7 3 5 3 7 3 2 0 3 5 4 3 3 3 2 1 2 4 3 6 7 4 4 3 4 6 11 7 9 11 9 9 8 11
15 17 19 20 21 23 23 22 22 22 11 4 3 5 5 3 5 3 1 3 3 4 4 4 3 4 1 1 6 4 3 5 3 3 2 5 8 5 15 17 14 11 9 11 9
15 16 18 20 21 23 24 22 25 11 4 2 3 3 4 3 3 5 2 2 2 5 4 3 3 3 3 4 4 6 4 3 9 6 2 5 9 4 11 14 13 13 12 10 8
15 15 17 19 21 24 23 22 12 4 1 1 0 2 1 3 3 3 4 2 2 4 3 3 5 3 3 4 3 4 5 5 6 3 2 5 16 6 10 12 15 15 12 11 11
17 17 16 18 19 21 22 10 6 3 2 5 3 3 1 1 2 2 3 3 3 2 3 2 3 5 8 7 4 3 4 8 5 4 4 8 13 22 9 13 12 11 14 15 14
17 18 18 17 18 16 12 4 3 1 8 1 3 4 5 2 1 4 5 5 4 6 4 3 6 5 2 5 4 4 4 8 9 2 7 11 12 14 11 11 20 20 18 18 11
16 16 17 16 18 7 5 3 2 3 1 6 4 3 3 7 6 6 8 5 4 6 6 7 3 5 4 3 4 5 5 5 8 6 5 8 6 10 4 6 6 15 17 18 19
14 13 14 14 5 8 3 4 2 2 3 7 4 3 3 2 3 2 3 3 2 9 7 6 1 6 4 6 7 5 5 3 4 3 4 4 8 5 7 13 7 10 16 19 16
14 11 9 6 12 5 2 3 2 1 4 4 1 1 2 4 3 1 1 2 5 6 6 6 8 5 6 7 8 8 2 3 3 4 4 4 4 6 2 9 19 10 16 17 16
13 11 9 5 4 4 4 3 1 4 7 3 4 5 3 2 1 1 2 4 2 3 2 6 0 5 6 2 3 4 2 2 4 2 2 6 9 4 6 9 6 5 15 15 16
13 10 10 5 1 0 1 2 2 5 3 5 5 5 3 7 4 6 5 5 7 3 6 1 5 1 3 3 2 4 5 4 5 2 7 4 4 13 10 14 10 9 12 16 15
14 13 14 12 2 3 2 4 7 7 8 2 4 3 7 8 5 6 5 5 7 2 3 5 10 9 6 6 6 6 8 6 7 4 8 0 9 7 8 7 7 8 11 13 13
12 14 16 19 14 5 4 6 9 8 6 7 3 4 5 5 5 6 9 6 9 13 10 6 7 2 0 1 2 4 5 0 2 2 3 5 8 7 5 9 4 7 11 15 15
13 8 14 11 18 9 2 19 8 9 5 3 12 10 8 7 7 7 8 5 6 13 1 5 6 1 2 2 4 3 5 4 2 3 7 6 10 14 10 11 6 8 13 13 13
12 3 7 27 21 3 9 9 8 9 4 8 8 5 8 8 8 7 7 4 6 4 3 5 4 3 4 8 10 2 3 2 3 5 6 4 11 7 8 9 11 15 14 14 15
8 4 7 34 8 4 14 8 8 7 16 12 5 10 10 10 8 7 12 11 11 9 10 7 4 5 13 1 2 2 10 13 6 7 3 3 23 9 8 10 11 13 14 11 12
4 5 11 20 9 13 4 5 14 10 13 13 12 11 8 10 8 11 16 6 11 11 12 9 5 2 5 2 3 6 6 6 1 1 18 9 21 5 4 1 8 9 10 12 12
4 4 4 6 10 11 13 12 13 9 20 7 7 7 5 12 13 9 6 5 5 6 3 14 8 9 18 9 6 6 10 12 16 9 24 27 34 38 25 19 8 10 12 14 16
6 9 10 8 18 23 9 7 22 14 10 18 14 25 18 14 18 22 17 1 3 5 4 9 17 8 22 19 5 7 16 14 18 28 18 40 31 33 30 27 15 15 14 15 17
8 7 3 8 6 26 25 35 30 18 13 14 23 12 24 28 25 19 21 8 14 2 8 4 8 6 17 7 7 15 29 18 26 30 26 31 40 40 36 25 24 11 14 16 15
16 8 5 10 17 15 28 37 33 21 18 21 19 19 23 31 26 23 5 7 11 12 11 9 7 5 23 4 5 16 15 27 30 31 20 28 39 38 26 16 9 8 15 18 17
Wind_Direction
19 17 16 18 16 15 16 15 14 18 15 17 50 114 102 74 46 59 39 349 346 3 11 19 32 11 36 66 60 121 61 146 169 150 191 35 130 58 53 99 47 330 150 154 155
9 8 7 8 10 8 8 10 9 9 9 9 30 156 145 61 50 54 13 5 2 3 7 27 355 3 26 36 27 78 96 218 224 172 176 164 175 169 131 109 42 46 76 135 150
357 358 358 358 360 0 1 1 2 2 360 4 3 188 191 5 50 190 7 13 8 357 360 4 17 40 48 9 7 176 151 186 244 180 178 173 170 174 130 229 197 181 168 153 149
344 346 348 350 351 352 353 353 354 353 354 353 351 227 198 233 234 171 12 18 21 16 24 10 30 36 60 7 334 356 357 210 187 230 139 200 153 199 190 228 201 165 160 150 157
338 341 341 343 343 344 345 345 344 345 346 343 340 167 148 40 252 191 171 17 23 44 49 27 49 32 67 310 339 55 313 311 189 189 226 208 227 211 232 292 134 134 150 157 158
333 336 336 337 337 337 337 338 336 337 332 333 310 189 142 240 182 203 299 136 34 46 57 44 89 133 99 57 61 314 284 276 254 223 219 203 251 171 171 124 123 147 161 167 168
328 330 332 334 334 333 332 332 329 329 318 312 248 177 120 236 205 209 137 117 58 55 90 84 103 89 129 5 343 338 333 328 230 190 229 150 284 234 143 152 160 172 174 179 188
320 325 326 329 330 329 327 326 323 322 313 292 215 174 225 201 210 227 193 148 99 73 81 89 88 102 64 162 17 21 43 348 303 146 317 144 262 265 162 166 187 187 187 187 191
314 320 322 326 328 327 324 323 318 312 291 277 223 175 262 181 213 218 221 166 123 108 78 84 80 90 27 74 18 15 285 261 313 199 122 186 272 283 171 188 190 198 196 190 180
308 313 319 323 325 327 324 321 310 295 153 143 147 23 199 221 168 189 200 185 131 112 72 66 49 58 27 79 261 264 291 263 240 313 192 259 269 233 194 204 207 200 190 197 192
307 314 316 320 323 328 331 333 16 349 8 210 175 236 193 179 206 203 171 130 112 91 194 30 75 237 230 193 156 181 224 246 248 251 219 237 248 270 209 219 216 202 197 201 197
309 312 316 318 321 325 326 58 60 145 304 233 225 276 225 169 252 218 170 164 157 194 127 34 230 215 135 159 162 194 256 266 285 260 192 264 249 272 246 225 213 206 200 199 190
302 306 317 318 322 324 14 61 36 353 253 291 208 191 200 158 212 210 157 168 171 169 188 179 218 125 157 197 192 213 197 242 240 338 280 315 264 237 301 256 231 220 207 201 193
289 298 319 323 321 342 1 355 4 1 40 271 241 276 116 150 266 133 186 152 185 199 167 232 237 170 201 239 155 265 213 254 289 346 247 43 291 261 255 270 226 211 198 199 185
281 291 308 336 316 323 315 332 350 340 314 262 227 81 104 172 137 257 58 70 183 181 132 244 165 184 211 220 162 225 129 184 206 237 332 219 247 261 53 268 261 211 210 202 189
276 277 286 291 281 270 303 311 330 54 248 255 144 175 153 213 220 107 104 51 46 122 329 248 310 177 216 111 168 117 33 69 56 88 286 227 192 234 191 219 257 208 209 189 187
265 257 253 255 199 252 292 8 33 177 278 224 214 169 198 196 220 180 169 178 179 149 226 247 218 228 173 149 92 102 72 320 320 338 238 134 242 251 253 246 237 223 198 197 183
262 245 238 238 244 220 106 62 214 220 225 66 129 117 189 162 230 188 167 223 235 109 119 215 275 175 183 204 179 168 164 167 250 238 288 224 246 248 232 285 288 262 201 190 179
245 245 239 234 231 224 88 211 199 188 209 170 93 186 228 229 196 158 205 205 205 172 188 177 266 124 174 94 123 165 179 259 19 110 337 235 285 287 271 281 283 209 174 191 189
221 240 229 225 215 166 157 233 211 194 158 150 209 185 203 209 177 191 181 197 234 196 117 212 288 151 121 114 29 144 158 88 14 274 263 261 274 246 246 260 177 216 212 201 192
201 245 215 202 169 179 220 219 217 236 174 183 212 242 212 191 200 207 216 241 209 145 107 137 167 199 123 208 171 117 219 226 157 175 207 305 268 214 204 218 197 215 210 198 196
172 232 201 173 192 211 227 190 189 212 226 246 214 215 203 193 211 225 214 218 162 155 167 200 164 211 215 356 357 248 198 185 207 234 242 145 261 172 195 229 183 213 205 197 193
187 196 177 187 218 220 255 262 222 187 195 210 224 199 191 206 236 200 230 189 161 159 173 177 215 283 316 36 354 221 206 218 357 117 235 215 261 70 13 205 207 214 197 197 192
152 205 177 213 230 228 224 235 228 215 235 219 226 172 170 225 222 255 227 216 195 214 171 159 196 184 236 223 128 185 215 207 213 238 256 241 262 268 266 259 231 218 197 197 192
178 215 178 195 224 223 201 237 232 226 213 209 243 224 215 236 228 236 245 320 211 216 184 178 240 198 249 255 180 229 234 193 208 230 233 265 261 268 270 270 256 237 202 197 193
194 213 227 223 160 214 222 237 237 232 191 216 229 210 224 231 220 238 226 202 225 70 170 180 248 173 257 223 206 263 257 241 233 248 247 256 266 267 268 283 275 229 196 197 196
217 214 217 220 219 202 219 232 236 232 248 235 226 228 235 231 233 245 213 239 215 192 184 164 171 151 251 208 79 270 255 239 248 246 235 247 250 263 272 258 236 203 196 196 187
Height
832 830 828 825 822 819 816 813 809 806 803 800 799 799 798 798 797 797 799 801 798 795 793 791 791 790 791 793 794 799 821 826 815 821 811 807 809 813 817 821 825 825 824 823 830
832 830 828 825 822 819 816 813 810 807 804 801 799 798 798 798 798 798 801 799 797 796 794 792 793 792 797 796 799 808 824 814 807 808 809 806 806 811 815 824 830 830 828 828 832
832 829 827 825 822 819 816 813 810 807 804 802 799 798 797 798 799 799 799 798 796 796 794 793 794 794 798 798 802 807 815 807 806 805 805 806 809 811 818 823 820 821 826 829 830
832 830 827 824 821 818 815 812 809 806 803 801 799 798 797 798 813 796 797 797 796 796 795 794 794 801 806 808 803 807 804 803 805 803 805 807 806 810 812 805 804 811 817 823 827
832 830 827 824 821 818 815 811 808 805 802 800 799 799 799 800 799 796 796 796 796 795 795 797 799 805 809 809 805 806 805 802 802 804 805 803 805 806 806 806 806 813 820 822 825
831 829 826 824 821 817 814 810 806 804 801 799 798 798 799 807 795 796 796 796 796 796 797 798 801 803 807 808 810 807 807 807 803 803 803 806 804 803 807 813 815 816 820 822 822
830 828 825 822 819 816 812 809 805 802 800 798 798 797 799 800 795 796 795 796 797 798 799 800 801 804 806 808 808 809 813 808 803 803 803 804 810 805 804 812 815 818 819 821 820
829 827 824 821 817 814 810 806 803 799 798 798 797 797 800 794 795 796 796 796 797 798 799 801 802 804 806 806 814 816 818 824 803 805 802 802 807 791 803 808 813 815 817 816 817
828 826 823 820 816 813 808 804 800 796 795 797 798 797 799 795 795 795 796 797 798 799 800 802 803 810 812 819 828 831 833 828 819 807 806 808 805 793 803 805 810 813 815 816 817
825 824 821 818 815 811 806 801 797 796 795 796 797 802 798 795 793 794 796 797 798 800 803 804 813 819 825 825 837 829 832 828 827 806 811 811 804 795 803 804 802 806 812 814 814
823 821 819 817 814 811 805 799 799 800 796 793 793 794 793 793 794 795 795 796 798 800 809 809 818 823 814 816 815 819 826 832 820 808 810 810 805 786 794 798 801 804 805 805 806
820 819 818 816 813 810 808 807 811 812 809 792 791 792 791 791 794 794 795 800 801 809 809 816 819 805 807 813 813 821 825 826 816 810 814 806 804 793 781 781 779 783 792 796 803
819 818 817 815 813 812 810 811 811 811 813 794 789 789 790 791 792 791 792 795 799 808 810 814 801 805 806 813 817 821 824 820 817 816 813 814 808 791 770 773 772 772 779 785 789
817 817 816 813 816 813 813 812 811 812 825 797 791 787 789 789 792 789 790 793 798 806 811 810 803 805 811 814 815 819 811 813 817 823 824 810 798 784 776 768 772 770 773 774 783
816 817 815 814 816 815 815 813 812 814 850 791 791 790 789 793 793 791 790 791 798 802 806 800 807 810 813 807 809 809 809 813 818 824 824 817 825 791 782 774 754 765 766 770 776
813 815 815 814 813 815 815 814 814 831 837 789 788 791 793 792 791 793 792 792 796 800 803 803 801 802 800 803 805 810 810 816 837 837 840 805 807 788 780 760 750 755 756 764 770
809 812 814 813 812 813 814 816 832 838 793 788 789 792 791 795 793 793 796 800 801 807 811 802 802 800 800 803 808 810 818 832 832 847 807 809 814 750 746 742 743 748 756 760 764
807 808 808 811 812 813 814 825 834 806 793 778 784 789 792 790 789 793 796 800 795 792 812 804 790 801 798 795 797 813 811 826 837 832 787 808 790 749 744 748 751 750 749 758 763
804 803 804 806 810 814 819 830 801 798 784 782 784 790 790 783 781 792 799 794 782 784 790 808 802 798 798 796 795 809 816 811 823 910 870 784 769 746 747 748 750 749 750 754 757
801 801 797 801 806 812 822 788 788 778 774 778 781 779 787 784 790 792 790 777 774 773 765 775 790 799 802 800 808 803 809 820 846 846 853 793 767 732 731 735 751 755 751 751 755
800 799 790 793 801 807 794 788 779 771 769 775 775 774 777 778 779 788 772 767 768 774 773 781 782 796 802 805 800 816 812 811 818 824 823 824 726 718 712 719 740 739 740 745 749
792 795 785 790 796 788 773 776 766 765 764 768 765 765 764 770 777 777 772 752 754 765 774 778 788 798 794 797 795 788 786 788 796 808 825 815 704 708 712 715 725 729 732 739 743
777 778 784 785 778 771 775 765 757 760 753 754 756 754 756 759 767 762 745 742 753 755 765 771 784 808 786 791 799 795 788 781 785 797 765 786 697 712 712 716 722 724 728 733 739
768 773 775 775 759 758 761 755 751 745 746 747 744 750 754 750 743 739 747 746 754 751 749 749 767 758 739 740 770 786 777 777 767 771 734 723 707 675 698 705 721 722 724 726 729
743 742 740 749 750 749 752 734 731 741 740 739 739 728 732 740 737 735 734 748 757 752 754 756 744 761 729 727 751 749 733 766 764 730 739 684 703 678 679 678 687 691 710 717 720
721 727 735 725 730 742 740 715 723 723 732 726 722 726 726 720 715 716 728 738 737 763 760 763 745 756 739 740 751 748 712 730 730 718 719 708 686 664 661 674 677 691 701 706 713
710 711 720 709 715 723 708 701 702 725 717 711 716 721 715 700 708 704 719 719 723 730 754 761 759 770 727 739 757 743 700 708 700 681 697 699 659 653 664 677 681 688 692 696 703